Bridgeport, West Virginia, United States (26330)
Lat: 39.29N, Lon: 80.26W
Wx Zone: WVZ031
Local Info
Past Weather Observations for Today

NOTE: This archive is for the closest National Weather Service station to Bridgeport. Information may differ from the station used for current weather conditions.

Click here for Long-term Archive

Time Weather Temperature Dewpoint Humidity Pressure Winds Precip Visibility
18:53
Clear
48°F / 9°C 39°F / 4°C 71% 30.04 in
(1017 mb)
Calm - 10SM
17:53
Clear
54°F / 12°C 37°F / 3°C 54% 30.04 in
(1017 mb)
SW 3.5 mph
(SW 6 kph)
- 10SM
16:53
Clear
57°F / 14°C 39°F / 4°C 51% 30.04 in
(1017 mb)
SSW 5.8 mph
(SSW 9 kph)
- 10SM
15:53
Clear
61°F / 16°C 37°F / 3°C 42% 30.04 in
(1017 mb)
NW 4.6 mph
(NW 7 kph)
- 9SM
14:53
Clear
61°F / 16°C 39°F / 4°C 45% 30.04 in
(1017 mb)
Variable 6.9 mph
(Variable 11 kph)
- 10SM
13:53
Clear
57°F / 14°C 43°F / 6°C 59% 30.04 in
(1017 mb)
SSW 4.6 mph
(SSW 7 kph)
- 10SM
12:53
Clear
57°F / 14°C 43°F / 6°C 59% 30.06 in
(1018 mb)
SSW 8.1 mph
(SSW 13 kph)
- 10SM
11:53
Clear
55°F / 13°C 43°F / 6°C 63% 30.09 in
(1019 mb)
W 4.6 mph
(W 7 kph)
- 10SM
10:53
Mostly Cloudy
52°F / 11°C 41°F / 5°C 67% 30.12 in
(1020 mb)
SW 3.5 mph
(SW 6 kph)
- 10SM
09:53
Clear
48°F / 9°C 45°F / 7°C 87% 30.12 in
(1020 mb)
Calm - 10SM
08:53
Clear
46°F / 8°C 45°F / 7°C 93% 30.12 in
(1020 mb)
SSE 3.5 mph
(SSE 6 kph)
- 8SM
07:53
Clear
Fog And Mist
41°F / 5°C 39°F / 4°C 93% 30.12 in
(1020 mb)
Calm - 6SM
06:53
Clear
Fog And Mist
39°F / 4°C 37°F / 3°C 93% 30.12 in
(1020 mb)
SSE 3.5 mph
(SSE 6 kph)
- 5SM
05:53
Clear
Fog And Mist
39°F / 4°C 39°F / 4°C 100% 30.12 in
(1020 mb)
Calm - 5SM
04:53
Clear
Fog And Mist
39°F / 4°C 39°F / 4°C 100% 30.12 in
(1020 mb)
Calm - 5SM
03:53
Clear
Fog And Mist
39°F / 4°C 39°F / 4°C 100% 30.12 in
(1020 mb)
Calm - 4SM
03:32
Partly Cloudy
Fog And Mist
39°F / 4°C 39°F / 4°C 100% 30.09 in
(1019 mb)
Calm - 3SM
03:26
Clear
Fog And Mist
39°F / 4°C 39°F / 4°C 100% 30.09 in
(1019 mb)
SW 3.5 mph
(SW 6 kph)
- 2 1/2SM
02:53
Clear
Fog And Mist
41°F / 5°C 39°F / 4°C 93% 30.09 in
(1019 mb)
Calm - 5SM
01:53
Clear
43°F / 6°C 41°F / 5°C 93% 30.09 in
(1019 mb)
Calm - 8SM
00:53
Clear
Fog And Mist
41°F / 5°C 39°F / 4°C 93% 30.09 in
(1019 mb)
Calm - 3SM
00:44
Clear
Fog And Mist
43°F / 6°C 41°F / 5°C 93% 30.09 in
(1019 mb)
Calm - 1 3/4SM
Time Weather Temperature Dewpoint Humidity Pressure Winds Precip Visibility


Weather for websites

WeatherForYou.com, LLC is not responsible for any damages or problems caused by this service. Current weather conditions are obtained from the closest station including government and personal stations which may have varying degrees of accuracy. Weather forecasts are derived from the NOAA NDFD. Like all things, this site belongs to Jesus Christ... He just trusts me to maintain it. If you have any questions or comments email webmaster@weatherforyou.com

Copyright © 2014, WeatherForYou.com LLC. All rights reserved.